Location: Campoleone
(41.6500°N, 12.6167°E)
Time: 11:38:03
(UTC+00:00)

Daily predictions for brighter satellites

Satellite Brightness Start Highest point End
(mag) Time Altitude Azimuth Time Altitude Azimuth Time Altitude Azimuth
Cosmos 2333 Rocket 2.5 17:27:14 10° NNW 17:32:47 50° ENE 17:38:20 10° SE
CSL-04 Rocket 3.8 17:31:00 10° SSE 17:36:30 83° ENE 17:42:04 10° NNW
Cosmos 2074 Rocket 4.0 17:30:35 10° N 17:36:49 66° E 17:42:57 10° SSE
Cosmos 2237 Rocket 3.4 17:32:50 10° N 17:37:22 23° NE 17:41:52 10° ESE
Cosmos 1441 Rocket 3.5 17:36:55 10° SSE 17:40:31 41° E 17:44:05 10° NNE
CSL-04 Debris 4.3 17:37:11 10° SSE 17:42:34 87° WSW 17:48:00 10° NNW
Cosmos 1378 3.3 17:41:44 10° N 17:45:30 82° W 17:49:14 10° S
Envisat 4.0 17:43:42 10° S 17:48:38 51° W 17:53:36 10° NNW
ISS -2.8 17:47:29 10° SSW 17:50:27 30° SE 17:53:23 10° ENE
PSLV R/B 4.3 17:50:34 10° SSW 17:52:42 21° SSE 17:54:17 13° ESE
Okean 1 Rocket 3.0 17:54:22 10° S 17:58:38 62° E 18:02:57 10° NNE
CZ-2C R/B 4.4 17:55:16 10° NE 17:59:08 29° E 18:02:57 10° SSE
Cosmos 2154 Rocket 4.0 17:56:06 10° N 18:02:15 61° E 18:08:22 10° SSE
Cosmos 2251 Rocket 4.3 17:57:55 10° NNW 18:03:12 58° WSW 18:08:27 10° S
H-2A R/B 3.3 18:02:04 13° ESE 18:04:52 21° ENE 18:08:33 10° NNE
FREGAT/IRIS 3.2 18:05:39 16° SE 18:07:28 31° ENE 18:10:00 10° N
SL-16 R/B 3.8 18:04:55 10° N 18:08:34 17° NE 18:11:05 13° ENE
Cosmos 1707 3.0 18:05:02 10° N 18:08:49 44° E 18:12:34 10° SSE
Orbus 7S? 4.3 18:07:29 10° SSW 18:11:26 62° SE 18:20:37 10° NE
CZ-4 R/B 3.6 18:08:08 10° SSW 18:11:28 28° W 18:14:53 10° NW
Cosmos 2219 Rocket 2.3 18:06:03 10° NNW 18:11:41 83° WSW 18:17:16 10° SSE
Cosmos 1025 Rocket 3.8 18:09:50 10° NNW 18:14:00 53° W 18:18:09 10° S
Resurs 01 Rocket 3.5 18:15:28 13° ENE 18:15:52 14° ENE 18:18:03 10° NNE
NOAA 11 4.3 18:13:30 10° SSE 18:19:00 83° WSW 18:24:32 10° NNW
GP-B 3.4 18:15:42 10° N 18:20:07 71° W 18:24:32 10° S
COSMOS 2428 3.1 18:18:02 10° NNW 18:23:40 65° WSW 18:29:16 10° S
SJ-6B 3.5 18:21:29 20° SE 18:23:49 38° ENE 18:27:37 10° N
MONITOR-E 3.9 18:21:08 10° S 18:23:55 84° WSW 18:26:44 10° NNW
NOSS 0 Rocket 3.9 18:20:04 10° NNW 18:26:19 77° ENE 18:32:12 12° SSE
Cosmos 1544 4.3 18:24:12 10° SSW 18:27:39 44° W 18:31:08 10° N
SAR-Lupe-2 3.4 18:24:36 10° NNE 18:28:12 81° E 18:31:46 10° S
DELTA 2 R/B (1) 3.9 18:23:30 10° WSW 18:28:56 52° SSE 18:32:02 25° E
Ariane Rocket 3.5 18:25:52 10° S 18:30:52 63° WSW 18:35:55 10° NNW
NOSS 3-4 (A) 3.9 18:24:22 10° NW 18:31:30 84° NE 18:38:04 15° SE
NOSS 3-4 (C) 3.8 18:24:29 10° NW 18:31:37 83° NE 18:38:08 16° SE
Cosmos 389 Rocket 2.4 18:28:36 10° N 18:31:59 55° ENE 18:33:22 31° SE
Cosmos 614 Rocket 4.0 18:28:35 10° NNW 18:33:45 58° ENE 18:36:57 22° SE
Cosmos 1892 Rocket 3.7 18:30:49 10° N 18:35:09 50° E 18:37:25 25° SE
MOS 1 4.3 18:30:21 10° SSE 18:36:03 89° ENE 18:41:47 10° NNW
ARGOS 3.6 18:35:07 25° ESE 18:37:38 40° ENE 18:42:39 10° N
Cosmos 2227 Rocket 2.2 18:32:39 10° S 18:38:08 56° ESE 18:43:41 10° NNE
HJ-1C 4.4 18:37:00 10° S 18:40:14 46° W 18:43:32 10° NNW
GEOS 3 Rocket 3.5 18:37:15 21° SE 18:40:42 87° NE 18:45:51 10° NW
Cosmos 2219 3.3 18:35:19 10° SSW 18:41:04 82° WNW 18:46:51 10° NNE
Cosmos 1939 Rocket 4.3 18:38:17 10° SSW 18:41:52 37° W 18:45:28 10° NNW
USA 186 1.7 18:40:50 35° SSE 18:42:06 74° ENE 18:45:32 10° N
Cosmos 2056 Rocket 3.5 18:37:12 10° S 18:42:37 75° ESE 18:48:02 10° NNE
Lacrosse 5 rocket 0.9 18:41:16 10° SW 18:44:51 69° SE 18:46:01 40° ENE
Cosmos 407 Rocket 3.3 18:40:11 10° NNW 18:45:20 77° ENE 18:48:24 24° SSE
ADEOS Rocket 3.6 18:39:43 10° NNE 18:46:59 53° E 18:54:32 10° S
Cosmos 962 Rocket 4.5 18:41:33 10° N 18:47:54 89° E 18:54:17 10° S
Cosmos 2297 Rocket 2.1 18:43:03 10° SSW 18:48:41 72° ESE 18:54:20 10° NNE
Okean 1-7 Rocket 3.5 18:44:35 10° N 18:49:03 74° E 18:51:27 27° SSE
Cosmos 1624 Rocket 4.0 18:49:08 10° SSW 18:54:20 84° WNW 18:59:34 10° NNE
Meteor 1-15 Rocket 4.4 18:52:55 10° SSW 18:58:40 75° W 19:04:34 10° N
Cosmos 405 Rocket 2.9 18:57:17 10° SSW 19:00:56 68° W 19:04:38 10° N
Meteor 1-4 Rocket 2.5 18:58:53 10° NNW 19:02:25 78° W 19:02:41 71° SSW
CZ-2C R/B 3.4 19:04:56 44° E 19:05:27 45° ENE 19:10:41 10° N
Cosmos 1437 Rocket 3.6 19:03:09 10° N 19:05:42 35° NNE 19:05:42 35° NNE
Cosmos 1140 Rocket 3.3 19:01:49 10° NNW 19:07:00 79° ENE 19:08:26 48° SSE
Cosmos 1954 Rocket 4.0 19:02:30 10° NNW 19:07:40 60° ENE 19:08:25 54° ESE
ASTEX 1 4.5 19:06:32 10° N 19:11:11 45° WNW 19:15:48 10° SSW
GENESIS II 4.3 19:07:32 10° NNW 19:11:21 66° NNE 19:11:21 66° NNE
Cosmos 1544 Rocket 3.4 19:11:23 47° S 19:12:40 86° E 19:17:10 10° N
Cosmos 1455 Rocket 3.1 19:08:51 11° SSW 19:13:06 76° W 19:17:34 10° N
SPOT 3 Rocket 3.8 19:10:35 23° S 19:13:46 68° WSW 19:18:55 10° NNW
Cosmos 2084 Rocket 3.9 19:09:24 10° SW 19:13:48 62° NW 19:17:39 14° NNE
In-Cosmos 22 4.5 19:09:05 10° NNW 19:14:25 65° W 19:18:25 18° S
ATLAS 2AS CENTAUR R/B 4.0 19:07:51 10° NW 19:14:39 38° WSW 19:20:54 10° S
Cosmos 2333 Rocket 4.3 19:12:15 10° NW 19:16:41 24° WSW 19:21:06 10° SSW
Meteor 1-24 Rocket 3.7 19:14:29 10° N 19:20:18 66° E 19:21:14 57° SE
SL-24 R/B 4.4 19:22:08 58° NE 19:22:08 58° NE 19:26:30 10° N
Cosmos 2237 Rocket 2.7 19:16:13 10° NNW 19:21:48 57° WSW 19:24:30 30° S
Cosmos 1674 4.0 19:20:35 10° N 19:22:42 32° N 19:22:42 32° N
ERBS 4.5 19:22:04 10° NNW 19:23:37 21° N 19:23:37 21° N
ISS -1.9 19:24:01 10° W 19:26:20 31° WNW 19:26:20 31° WNW
Cosmos 2181 Rocket 4.4 19:21:24 10° SSW 19:27:33 62° W 19:33:51 10° N
SL-08 R/B 4.4 19:23:54 10° N 19:30:24 72° E 19:31:26 61° SE
RESURS DK-1 4.5 19:29:16 10° N 19:30:49 18° NNE 19:30:49 18° NNE
Cosmos 1452 Rocket 4.2 19:38:51 41° NNE 19:38:51 41° NNE 19:42:15 10° NNE
Cosmos 676 Rocket 4.2 19:35:35 10° NNW 19:40:47 64° WSW 19:41:12 62° SW
Resurs 1-3 4.2 19:42:46 55° WNW 19:42:46 55° WNW 19:46:35 10° NNW
H-2A R/B 2.8 19:42:42 38° SW 19:43:56 46° W 19:48:46 10° NNW
Cosmos 2218 Rocket 4.4 19:40:00 10° NNW 19:46:15 60° W 19:49:00 33° SSW
Meteor 2-5 Rocket 4.4 19:40:54 10° NNW 19:46:36 54° W 19:48:44 36° SSW
Cosmos 2366 rocket 4.4 19:41:59 10° NNW 19:48:15 62° W 19:50:40 38° SSW
Resurs 01 Rocket 2.7 19:53:03 43° NW 19:53:03 43° NW 19:56:15 10° NNW
SL-16 R/B 2.2 19:47:42 10° NNW 19:52:58 76° NW 19:52:58 76° NW
Cosmos 1821 Rocket 4.4 19:50:33 10° N 19:55:11 48° NNE 19:55:11 48° NNE
CZ-2C R/B 4.2 19:56:42 10° NNE 19:58:59 25° NNE 19:58:59 25° NNE
Cosmos 2227 Rocket 4.3 20:18:04 10° WSW 20:22:34 24° NW 20:27:05 10° N
Lacrosse 5 rocket 4.4 20:21:39 10° WNW 20:21:44 10° WNW 20:21:44 10° WNW
CZ-4C R/B 4.4 21:46:58 10° NNW 21:50:38 27° N 21:50:38 27° N
